Regional Weather Roundup
Issued by NWS

Home | Current Version | Previous Version | Text Only | Print | Product List | Glossary Off
Versions: 1 2 3 4 5 6 7 8 9 10 11 12 13 14 15 16 17 18 19 20 21 22 23 24 25 26 27 28 29 30 31 32 33 34 35 36 37 38 39 40 41 42 43 44 45 46 47 48 49 50

000
ASUS43 KDMX 220806
RWRIA

WEATHER ROUNDUP FOR IOWA
NATIONAL WEATHER SERVICE DES MOINES IA
200 AM CST WED NOV 22 2017

NOTE: "FAIR" INDICATES FEW OR NO CLOUDS BELOW 12,000 FEET WITH NO
SIGNIFICANT WEATHER AND/OR OBSTRUCTIONS TO VISIBILITY.

* - THESE STATIONS ARE NOT NWS STATIONS...THUS NOT UNDER NWS
QUALITY CONTROL.  THEY ALSO DO NOT REPORT WEATHER SUCH
AS PRECIPITATION OR FOG.

IAZ001>003-012>014-020>022-031>034-043>046-220900-
   NORTHWEST IOWA

CITY           SKY/WX    TMP DP  RH WIND       PRES   REMARKS
CARROLL *      CLOUDY    16  10  79 W9        30.39S WCI   4
CHEROKEE *     CLOUDY    14   9  81 S3        30.39F
DENISON *      CLOUDY    18  10  73 NW3       30.41S
LE MARS *      CLOUDY    14   9  79 SW5       30.40S WCI   6
ORANGE CITY *  CLOUDY    14   9  79 W6        30.37S WCI   5
SHELDON *      CLOUDY    10   7  85 CALM      30.36S
SIOUX CITY     CLOUDY    14   8  77 CALM      30.41S
SPENCER        CLOUDY    11   7  84 W3        30.38S
STORM LAKE *   CLOUDY    16   9  73 NW10      30.37S WCI   3
$$

IAZ055>058-069>071-079>083-090>094-220900-
   SOUTHWEST IOWA

CITY           SKY/WX    TMP DP  RH WIND       PRES   REMARKS
ATLANTIC *     CLOUDY    18  12  79 CALM      30.41R
AUDUBON *      CLOUDY    16  10  79 CALM      30.40R
CLARINDA *     CLOUDY    19  14  79 NE5       30.43S WCI  13
COUNCIL BLFS * CLOUDY    19  12  73 NW9       30.40S WCI   9
CRESTON *      CLOUDY    16  12  86 NW7       30.40R WCI   6
HARLAN  *      CLOUDY    16  10  79 VRB3      30.44S
LAMONI         CLOUDY    19  12  74 NW9       30.38R WCI   8
RED OAK *      PTCLDY    18  12  79 N3        30.42R
SHENANDOAH *   CLOUDY    18  12  79 N5        30.43S WCI  11
$$

IAZ047>049-059>061-072>074-084-220900-
   CENTRAL IOWA

CITY           SKY/WX    TMP DP  RH WIND       PRES   REMARKS
AMES           CLOUDY    20  12  71 NW8       30.38R WCI  10
ANKENY *       CLOUDY    21  10  63 NW8G14    30.41R WCI  12
BOONE *        CLOUDY    19  10  68 W8        30.37R WCI   9
CHARITON *     CLOUDY    19  12  73 NW9       30.38R WCI   9
DES MOINES     CLOUDY    21  11  65 NW9       30.40R WCI  11
GRINNELL*      PTCLDY    18  13  83 W7        30.38R WCI   8
KNOXVILLE *    CLOUDY    19  10  68 NW13      30.37R WCI   7
MARSHALLTOWN   CLOUDY    17  13  84 NW9       30.36R WCI   6
NEWTON *       PTCLDY    19  12  73 NW8       30.38R WCI   9
PELLA *        PTCLDY    19  13  76 NW6       30.40R WCI  11
PERRY *          N/A     17  12  78 NW7       30.39S WCI   8
$$

IAZ004>006-015-016-023>025-035-036-220900-
   NORTH CENTRAL IOWA

CITY           SKY/WX    TMP DP  RH WIND       PRES   REMARKS
ALGONA *       CLOUDY    16  10  79 NW6       30.36S WCI   7
CLARION *      CLOUDY    14  12  92 NW7       30.37S WCI   4
ESTHERVILLE    CLOUDY    10   7  87 NW5       30.36S WCI   2
FORT DODGE *   CLOUDY    16  10  77 CALM      30.39R
MASON CITY     CLOUDY    15  10  80 NW10      30.35R WCI   2
FOREST CITY *    N/A     19  12  73 NW8       30.35S WCI   9
WEBSTER CITY * CLOUDY    16  10  79 NW9       30.36R WCI   4
IOWA FALLS *     N/A     19  13  76 NW7       30.36S WCI  10
$$

IAZ007>011-017>019-026>030-037>042-050>054-066-220900-
   NORTHEAST IOWA

CITY           SKY/WX    TMP DP  RH WIND       PRES   REMARKS
CEDAR RAPIDS   CLOUDY    14  11  87 NW6       30.33R WCI   5
CHARLES CITY * CLOUDY    18  12  79 NW9       30.34R WCI   6
CLINTON *      CLEAR     15  13  91 W7        30.32  WCI   5
DECORAH *      CLOUDY    18  12  79 NW6       30.31R WCI   9
DUBUQUE        CLEAR     20  12  71 NW7       30.29R WCI  11
MONTICELLO *   CLOUDY    18  12  79 NW7       30.32R WCI   8
OELWEIN *      CLOUDY    18  16  93 NW13      30.34R WCI   4
WATERLOO       CLOUDY    19  12  74 NW10      30.36R WCI   7
$$

IAZ064-065-067-068-078-220900-
   EAST CENTRAL IOWA

CITY           SKY/WX    TMP DP  RH WIND       PRES   REMARKS
DAVENPORT      CLOUDY    20  14  77 NW8       30.33R WCI  10
IOWA CITY      CLOUDY    21  13  71 NW6       30.37R WCI  13
MT. PLEASANT * CLOUDY    21  14  73 NW7       30.36R WCI  13
MUSCATINE *    CLOUDY    21  14  73 W6        30.36R WCI  14
QUAD CITIES    CLOUDY    23  14  68 NW8       30.32R WCI  14
$$

IAZ062-063-075>077-085>089-095>099-220900-
   SOUTHEAST IOWA

CITY           SKY/WX    TMP DP  RH WIND       PRES   REMARKS
BURLINGTON     CLOUDY    22  16  78 NW8       30.33R WCI  12
FAIRFIELD *    CLOUDY    19  12  73 W6        30.36R WCI  11
FORT MADISON * CLOUDY    21  16  79 NW6       30.35R WCI  14
KEOKUK *       CLOUDY    23  16  74 NW7       30.35R WCI  15
OSKALOOSA *      N/A     19  14  84 NW7       30.38R WCI   9
OTTUMWA        PTCLDY    20  13  74 NW9       30.37R WCI   9
WASHINGTON *   CLOUDY    19  16  86 NW10      30.37R WCI   8
$$

ABBREVIATIONS USED IN REMARKS
   TC - TEMPERATURES IN CELSIUS
  WCI - WIND CHILL INDEX
   HX - HEAT INDEX
  VSB - VISIBILITY
$$





USA.gov is the U.S. government's official web portal to all federal, state and local government web resources and services.